<?xml version="1.0" encoding="UTF-8" standalone="no" ?>
<gpx xmlns="http://www.topografix.com/GPX/1/1" xmlns:xsi="http://www.w3.org/2001/XMLSchema-instance" xsi:schemaLocation="http://www.topografix.com/GPX/1/1 http://www.topografix.com/GPX/1/1/gpx.xsd" version="1.1" creator="VisuGPX - https://www.visugpx.com">
  <metadata>
    <name>Autour des Clérimois</name>
    <desc><![CDATA[A la découverte des hameaux et de la chapelle Saint-Léonard]]></desc>
  </metadata>
  <trk>
    <name><![CDATA[track]]></name>
    <trkseg>
      <trkpt lat="48.23016" lon="3.44313">
        <ele>232</ele>
        <time>2008-01-22T00:00:00Z</time>
      </trkpt>
      <trkpt lat="48.22954" lon="3.44255">
        <ele>232</ele>
        <time>2008-01-22T00:00:00Z</time>
      </trkpt>
      <trkpt lat="48.22879" lon="3.44179">
        <ele>233</ele>
        <time>2008-01-22T00:00:00Z</time>
      </trkpt>
      <trkpt lat="48.22827" lon="3.44115">
        <ele>232</ele>
        <time>2008-01-22T00:00:00Z</time>
      </trkpt>
      <trkpt lat="48.22809" lon="3.4408">
        <ele>232</ele>
        <time>2008-01-22T00:00:00Z</time>
      </trkpt>
      <trkpt lat="48.22764" lon="3.43933">
        <ele>231</ele>
        <time>2008-01-22T00:00:00Z</time>
      </trkpt>
      <trkpt lat="48.22772" lon="3.43776">
        <ele>227</ele>
        <time>2008-01-22T00:00:00Z</time>
      </trkpt>
      <trkpt lat="48.22785" lon="3.43625">
        <ele>224</ele>
        <time>2008-01-22T00:00:00Z</time>
      </trkpt>
      <trkpt lat="48.22796" lon="3.43514">
        <ele>223</ele>
        <time>2008-01-22T00:00:00Z</time>
      </trkpt>
      <trkpt lat="48.22807" lon="3.4347">
        <ele>222</ele>
        <time>2008-01-22T00:00:00Z</time>
      </trkpt>
      <trkpt lat="48.22901" lon="3.43166">
        <ele>228</ele>
        <time>2008-01-22T00:00:00Z</time>
      </trkpt>
      <trkpt lat="48.22919" lon="3.43117">
        <ele>230</ele>
        <time>2008-01-22T00:00:00Z</time>
      </trkpt>
      <trkpt lat="48.22945" lon="3.43081">
        <ele>230</ele>
        <time>2008-01-22T00:00:00Z</time>
      </trkpt>
      <trkpt lat="48.22986" lon="3.43043">
        <ele>230</ele>
        <time>2008-01-22T00:00:00Z</time>
      </trkpt>
      <trkpt lat="48.23092" lon="3.42957">
        <ele>230</ele>
        <time>2008-01-22T00:00:00Z</time>
      </trkpt>
      <trkpt lat="48.23119" lon="3.42927">
        <ele>229</ele>
        <time>2008-01-22T00:00:00Z</time>
      </trkpt>
      <trkpt lat="48.23231" lon="3.42759">
        <ele>222</ele>
        <time>2008-01-22T00:00:00Z</time>
      </trkpt>
      <trkpt lat="48.23397" lon="3.42471">
        <ele>217</ele>
        <time>2008-01-22T00:00:00Z</time>
      </trkpt>
      <trkpt lat="48.23424" lon="3.42398">
        <ele>216</ele>
        <time>2008-01-22T00:00:00Z</time>
      </trkpt>
      <trkpt lat="48.23426" lon="3.42348">
        <ele>215</ele>
        <time>2008-01-22T00:00:00Z</time>
      </trkpt>
      <trkpt lat="48.23411" lon="3.42237">
        <ele>213</ele>
        <time>2008-01-22T00:00:00Z</time>
      </trkpt>
      <trkpt lat="48.23407" lon="3.4214">
        <ele>210</ele>
        <time>2008-01-22T00:00:00Z</time>
      </trkpt>
      <trkpt lat="48.23414" lon="3.42097">
        <ele>209</ele>
        <time>2008-01-22T00:00:00Z</time>
      </trkpt>
      <trkpt lat="48.23429" lon="3.42054">
        <ele>209</ele>
        <time>2008-01-22T00:00:00Z</time>
      </trkpt>
      <trkpt lat="48.23451" lon="3.42023">
        <ele>209</ele>
        <time>2008-01-22T00:00:00Z</time>
      </trkpt>
      <trkpt lat="48.23537" lon="3.4195">
        <ele>209</ele>
        <time>2008-01-22T00:00:00Z</time>
      </trkpt>
      <trkpt lat="48.23558" lon="3.41923">
        <ele>208</ele>
        <time>2008-01-22T00:00:00Z</time>
      </trkpt>
      <trkpt lat="48.23568" lon="3.41926">
        <ele>207</ele>
        <time>2008-01-22T00:00:00Z</time>
      </trkpt>
      <trkpt lat="48.23574" lon="3.41942">
        <ele>208</ele>
        <time>2008-01-22T00:00:00Z</time>
      </trkpt>
      <trkpt lat="48.23574" lon="3.41961">
        <ele>208</ele>
        <time>2008-01-22T00:00:00Z</time>
      </trkpt>
      <trkpt lat="48.23548" lon="3.42014">
        <ele>210</ele>
        <time>2008-01-22T00:00:00Z</time>
      </trkpt>
      <trkpt lat="48.23546" lon="3.42045">
        <ele>210</ele>
        <time>2008-01-22T00:00:00Z</time>
      </trkpt>
      <trkpt lat="48.23522" lon="3.4216">
        <ele>212</ele>
        <time>2008-01-22T00:00:00Z</time>
      </trkpt>
      <trkpt lat="48.23515" lon="3.42249">
        <ele>212</ele>
        <time>2008-01-22T00:00:00Z</time>
      </trkpt>
      <trkpt lat="48.23519" lon="3.42469">
        <ele>214</ele>
        <time>2008-01-22T00:00:00Z</time>
      </trkpt>
      <trkpt lat="48.23521" lon="3.42707">
        <ele>217</ele>
        <time>2008-01-22T00:00:00Z</time>
      </trkpt>
      <trkpt lat="48.23535" lon="3.42964">
        <ele>216</ele>
        <time>2008-01-22T00:00:00Z</time>
      </trkpt>
      <trkpt lat="48.23537" lon="3.4304">
        <ele>214</ele>
        <time>2008-01-22T00:00:00Z</time>
      </trkpt>
      <trkpt lat="48.23536" lon="3.43103">
        <ele>212</ele>
        <time>2008-01-22T00:00:00Z</time>
      </trkpt>
      <trkpt lat="48.23537" lon="3.43165">
        <ele>211</ele>
        <time>2008-01-22T00:00:00Z</time>
      </trkpt>
      <trkpt lat="48.23551" lon="3.43315">
        <ele>207</ele>
        <time>2008-01-22T00:00:00Z</time>
      </trkpt>
      <trkpt lat="48.23554" lon="3.43366">
        <ele>206</ele>
        <time>2008-01-22T00:00:00Z</time>
      </trkpt>
      <trkpt lat="48.23566" lon="3.43436">
        <ele>205</ele>
        <time>2008-01-22T00:00:00Z</time>
      </trkpt>
      <trkpt lat="48.23575" lon="3.43457">
        <ele>205</ele>
        <time>2008-01-22T00:00:00Z</time>
      </trkpt>
      <trkpt lat="48.23598" lon="3.43475">
        <ele>200</ele>
        <time>2008-01-22T00:00:00Z</time>
      </trkpt>
      <trkpt lat="48.23607" lon="3.43495">
        <ele>200</ele>
        <time>2008-01-22T00:00:00Z</time>
      </trkpt>
      <trkpt lat="48.23604" lon="3.43594">
        <ele>203</ele>
        <time>2008-01-22T00:00:00Z</time>
      </trkpt>
      <trkpt lat="48.23563" lon="3.43675">
        <ele>210</ele>
        <time>2008-01-22T00:00:00Z</time>
      </trkpt>
      <trkpt lat="48.2357" lon="3.43821">
        <ele>208</ele>
        <time>2008-01-22T00:00:00Z</time>
      </trkpt>
      <trkpt lat="48.23593" lon="3.43916">
        <ele>203</ele>
        <time>2008-01-22T00:00:00Z</time>
      </trkpt>
      <trkpt lat="48.23596" lon="3.43967">
        <ele>202</ele>
        <time>2008-01-22T00:00:00Z</time>
      </trkpt>
      <trkpt lat="48.23596" lon="3.44102">
        <ele>208</ele>
        <time>2008-01-22T00:00:00Z</time>
      </trkpt>
      <trkpt lat="48.23617" lon="3.44268">
        <ele>209</ele>
        <time>2008-01-22T00:00:00Z</time>
      </trkpt>
      <trkpt lat="48.2366" lon="3.44439">
        <ele>206</ele>
        <time>2008-01-22T00:00:00Z</time>
      </trkpt>
      <trkpt lat="48.23712" lon="3.44782">
        <ele>221</ele>
        <time>2008-01-22T00:00:00Z</time>
      </trkpt>
      <trkpt lat="48.23764" lon="3.45018">
        <ele>230</ele>
        <time>2008-01-22T00:00:00Z</time>
      </trkpt>
      <trkpt lat="48.2381" lon="3.45258">
        <ele>231</ele>
        <time>2008-01-22T00:00:00Z</time>
      </trkpt>
      <trkpt lat="48.23817" lon="3.45312">
        <ele>230</ele>
        <time>2008-01-22T00:00:00Z</time>
      </trkpt>
      <trkpt lat="48.23826" lon="3.45327">
        <ele>230</ele>
        <time>2008-01-22T00:00:00Z</time>
      </trkpt>
      <trkpt lat="48.23843" lon="3.45352">
        <ele>230</ele>
        <time>2008-01-22T00:00:00Z</time>
      </trkpt>
      <trkpt lat="48.23787" lon="3.4544">
        <ele>229</ele>
        <time>2008-01-22T00:00:00Z</time>
      </trkpt>
      <trkpt lat="48.23734" lon="3.45503">
        <ele>232</ele>
        <time>2008-01-22T00:00:00Z</time>
      </trkpt>
      <trkpt lat="48.23787" lon="3.4544">
        <ele>229</ele>
        <time>2008-01-22T00:00:00Z</time>
      </trkpt>
      <trkpt lat="48.23843" lon="3.45351">
        <ele>230</ele>
        <time>2008-01-22T00:00:00Z</time>
      </trkpt>
      <trkpt lat="48.23856" lon="3.45372">
        <ele>230</ele>
        <time>2008-01-22T00:00:00Z</time>
      </trkpt>
      <trkpt lat="48.23856" lon="3.45395">
        <ele>230</ele>
        <time>2008-01-22T00:00:00Z</time>
      </trkpt>
      <trkpt lat="48.23848" lon="3.45421">
        <ele>228</ele>
        <time>2008-01-22T00:00:00Z</time>
      </trkpt>
      <trkpt lat="48.23847" lon="3.45441">
        <ele>229</ele>
        <time>2008-01-22T00:00:00Z</time>
      </trkpt>
      <trkpt lat="48.23891" lon="3.45757">
        <ele>233</ele>
        <time>2008-01-22T00:00:00Z</time>
      </trkpt>
      <trkpt lat="48.23915" lon="3.45916">
        <ele>234</ele>
        <time>2008-01-22T00:00:00Z</time>
      </trkpt>
      <trkpt lat="48.23927" lon="3.45934">
        <ele>234</ele>
        <time>2008-01-22T00:00:00Z</time>
      </trkpt>
      <trkpt lat="48.23986" lon="3.46004">
        <ele>233</ele>
        <time>2008-01-22T00:00:00Z</time>
      </trkpt>
      <trkpt lat="48.24017" lon="3.46035">
        <ele>232</ele>
        <time>2008-01-22T00:00:00Z</time>
      </trkpt>
      <trkpt lat="48.24291" lon="3.46273">
        <ele>230</ele>
        <time>2008-01-22T00:00:00Z</time>
      </trkpt>
      <trkpt lat="48.24325" lon="3.46309">
        <ele>231</ele>
        <time>2008-01-22T00:00:00Z</time>
      </trkpt>
      <trkpt lat="48.24384" lon="3.46396">
        <ele>234</ele>
        <time>2008-01-22T00:00:00Z</time>
      </trkpt>
      <trkpt lat="48.24455" lon="3.46477">
        <ele>236</ele>
        <time>2008-01-22T00:00:00Z</time>
      </trkpt>
      <trkpt lat="48.24615" lon="3.46623">
        <ele>228</ele>
        <time>2008-01-22T00:00:00Z</time>
      </trkpt>
      <trkpt lat="48.24731" lon="3.46727">
        <ele>225</ele>
        <time>2008-01-22T00:00:00Z</time>
      </trkpt>
      <trkpt lat="48.24778" lon="3.46788">
        <ele>223</ele>
        <time>2008-01-22T00:00:00Z</time>
      </trkpt>
      <trkpt lat="48.24813" lon="3.46858">
        <ele>221</ele>
        <time>2008-01-22T00:00:00Z</time>
      </trkpt>
      <trkpt lat="48.24865" lon="3.46975">
        <ele>216</ele>
        <time>2008-01-22T00:00:00Z</time>
      </trkpt>
      <trkpt lat="48.24899" lon="3.47067">
        <ele>212</ele>
        <time>2008-01-22T00:00:00Z</time>
      </trkpt>
      <trkpt lat="48.24911" lon="3.4711">
        <ele>208</ele>
        <time>2008-01-22T00:00:00Z</time>
      </trkpt>
      <trkpt lat="48.24841" lon="3.4715">
        <ele>204</ele>
        <time>2008-01-22T00:00:00Z</time>
      </trkpt>
      <trkpt lat="48.24813" lon="3.4718">
        <ele>198</ele>
        <time>2008-01-22T00:00:00Z</time>
      </trkpt>
      <trkpt lat="48.24783" lon="3.47229">
        <ele>195</ele>
        <time>2008-01-22T00:00:00Z</time>
      </trkpt>
      <trkpt lat="48.2474" lon="3.47268">
        <ele>192</ele>
        <time>2008-01-22T00:00:00Z</time>
      </trkpt>
      <trkpt lat="48.24686" lon="3.47331">
        <ele>195</ele>
        <time>2008-01-22T00:00:00Z</time>
      </trkpt>
      <trkpt lat="48.24649" lon="3.47365">
        <ele>198</ele>
        <time>2008-01-22T00:00:00Z</time>
      </trkpt>
      <trkpt lat="48.24555" lon="3.47426">
        <ele>196</ele>
        <time>2008-01-22T00:00:00Z</time>
      </trkpt>
      <trkpt lat="48.24535" lon="3.47445">
        <ele>195</ele>
        <time>2008-01-22T00:00:00Z</time>
      </trkpt>
      <trkpt lat="48.2433" lon="3.47724">
        <ele>180</ele>
        <time>2008-01-22T00:00:00Z</time>
      </trkpt>
      <trkpt lat="48.24227" lon="3.47862">
        <ele>189</ele>
        <time>2008-01-22T00:00:00Z</time>
      </trkpt>
      <trkpt lat="48.24174" lon="3.47711">
        <ele>183</ele>
        <time>2008-01-22T00:00:00Z</time>
      </trkpt>
      <trkpt lat="48.24165" lon="3.47704">
        <ele>181</ele>
        <time>2008-01-22T00:00:00Z</time>
      </trkpt>
      <trkpt lat="48.24152" lon="3.47703">
        <ele>181</ele>
        <time>2008-01-22T00:00:00Z</time>
      </trkpt>
      <trkpt lat="48.2403" lon="3.4774">
        <ele>172</ele>
        <time>2008-01-22T00:00:00Z</time>
      </trkpt>
      <trkpt lat="48.24021" lon="3.47747">
        <ele>171</ele>
        <time>2008-01-22T00:00:00Z</time>
      </trkpt>
      <trkpt lat="48.24017" lon="3.47758">
        <ele>171</ele>
        <time>2008-01-22T00:00:00Z</time>
      </trkpt>
      <trkpt lat="48.24019" lon="3.47777">
        <ele>173</ele>
        <time>2008-01-22T00:00:00Z</time>
      </trkpt>
      <trkpt lat="48.24048" lon="3.47847">
        <ele>179</ele>
        <time>2008-01-22T00:00:00Z</time>
      </trkpt>
      <trkpt lat="48.24055" lon="3.47878">
        <ele>180</ele>
        <time>2008-01-22T00:00:00Z</time>
      </trkpt>
      <trkpt lat="48.2406" lon="3.48007">
        <ele>185</ele>
        <time>2008-01-22T00:00:00Z</time>
      </trkpt>
      <trkpt lat="48.24073" lon="3.48151">
        <ele>185</ele>
        <time>2008-01-22T00:00:00Z</time>
      </trkpt>
      <trkpt lat="48.24111" lon="3.48366">
        <ele>186</ele>
        <time>2008-01-22T00:00:00Z</time>
      </trkpt>
      <trkpt lat="48.23895" lon="3.48417">
        <ele>149</ele>
        <time>2008-01-22T00:00:00Z</time>
      </trkpt>
      <trkpt lat="48.23729" lon="3.4845">
        <ele>135</ele>
        <time>2008-01-22T00:00:00Z</time>
      </trkpt>
      <trkpt lat="48.2367" lon="3.4856">
        <ele>137</ele>
        <time>2008-01-22T00:00:00Z</time>
      </trkpt>
      <trkpt lat="48.23599" lon="3.48714">
        <ele>135</ele>
        <time>2008-01-22T00:00:00Z</time>
      </trkpt>
      <trkpt lat="48.23575" lon="3.48749">
        <ele>131</ele>
        <time>2008-01-22T00:00:00Z</time>
      </trkpt>
      <trkpt lat="48.23548" lon="3.4878">
        <ele>131</ele>
        <time>2008-01-22T00:00:00Z</time>
      </trkpt>
      <trkpt lat="48.23484" lon="3.4883">
        <ele>127</ele>
        <time>2008-01-22T00:00:00Z</time>
      </trkpt>
      <trkpt lat="48.23401" lon="3.48877">
        <ele>126</ele>
        <time>2008-01-22T00:00:00Z</time>
      </trkpt>
      <trkpt lat="48.23315" lon="3.48914">
        <ele>125</ele>
        <time>2008-01-22T00:00:00Z</time>
      </trkpt>
      <trkpt lat="48.23253" lon="3.48933">
        <ele>128</ele>
        <time>2008-01-22T00:00:00Z</time>
      </trkpt>
      <trkpt lat="48.2322" lon="3.48929">
        <ele>128</ele>
        <time>2008-01-22T00:00:00Z</time>
      </trkpt>
      <trkpt lat="48.23188" lon="3.48929">
        <ele>127</ele>
        <time>2008-01-22T00:00:00Z</time>
      </trkpt>
      <trkpt lat="48.23155" lon="3.48938">
        <ele>123</ele>
        <time>2008-01-22T00:00:00Z</time>
      </trkpt>
      <trkpt lat="48.2313" lon="3.48952">
        <ele>123</ele>
        <time>2008-01-22T00:00:00Z</time>
      </trkpt>
      <trkpt lat="48.23101" lon="3.48978">
        <ele>123</ele>
        <time>2008-01-22T00:00:00Z</time>
      </trkpt>
      <trkpt lat="48.23077" lon="3.49014">
        <ele>120</ele>
        <time>2008-01-22T00:00:00Z</time>
      </trkpt>
      <trkpt lat="48.23029" lon="3.49108">
        <ele>120</ele>
        <time>2008-01-22T00:00:00Z</time>
      </trkpt>
      <trkpt lat="48.23018" lon="3.4911">
        <ele>120</ele>
        <time>2008-01-22T00:00:00Z</time>
      </trkpt>
      <trkpt lat="48.22862" lon="3.48943">
        <ele>118</ele>
        <time>2008-01-22T00:00:00Z</time>
      </trkpt>
      <trkpt lat="48.22893" lon="3.48841">
        <ele>118</ele>
        <time>2008-01-22T00:00:00Z</time>
      </trkpt>
      <trkpt lat="48.22908" lon="3.48767">
        <ele>120</ele>
        <time>2008-01-22T00:00:00Z</time>
      </trkpt>
      <trkpt lat="48.2293" lon="3.48612">
        <ele>124</ele>
        <time>2008-01-22T00:00:00Z</time>
      </trkpt>
      <trkpt lat="48.22801" lon="3.48381">
        <ele>138</ele>
        <time>2008-01-22T00:00:00Z</time>
      </trkpt>
      <trkpt lat="48.22715" lon="3.48216">
        <ele>156</ele>
        <time>2008-01-22T00:00:00Z</time>
      </trkpt>
      <trkpt lat="48.22704" lon="3.48211">
        <ele>156</ele>
        <time>2008-01-22T00:00:00Z</time>
      </trkpt>
      <trkpt lat="48.22656" lon="3.48274">
        <ele>148</ele>
        <time>2008-01-22T00:00:00Z</time>
      </trkpt>
      <trkpt lat="48.2257" lon="3.48219">
        <ele>147</ele>
        <time>2008-01-22T00:00:00Z</time>
      </trkpt>
      <trkpt lat="48.22513" lon="3.48143">
        <ele>151</ele>
        <time>2008-01-22T00:00:00Z</time>
      </trkpt>
      <trkpt lat="48.22495" lon="3.481">
        <ele>147</ele>
        <time>2008-01-22T00:00:00Z</time>
      </trkpt>
      <trkpt lat="48.22481" lon="3.48015">
        <ele>152</ele>
        <time>2008-01-22T00:00:00Z</time>
      </trkpt>
      <trkpt lat="48.22475" lon="3.47819">
        <ele>161</ele>
        <time>2008-01-22T00:00:00Z</time>
      </trkpt>
      <trkpt lat="48.2245" lon="3.47524">
        <ele>172</ele>
        <time>2008-01-22T00:00:00Z</time>
      </trkpt>
      <trkpt lat="48.22451" lon="3.47429">
        <ele>177</ele>
        <time>2008-01-22T00:00:00Z</time>
      </trkpt>
      <trkpt lat="48.22465" lon="3.47276">
        <ele>182</ele>
        <time>2008-01-22T00:00:00Z</time>
      </trkpt>
      <trkpt lat="48.22494" lon="3.47094">
        <ele>178</ele>
        <time>2008-01-22T00:00:00Z</time>
      </trkpt>
      <trkpt lat="48.22508" lon="3.47081">
        <ele>176</ele>
        <time>2008-01-22T00:00:00Z</time>
      </trkpt>
      <trkpt lat="48.22619" lon="3.47011">
        <ele>171</ele>
        <time>2008-01-22T00:00:00Z</time>
      </trkpt>
      <trkpt lat="48.22565" lon="3.46837">
        <ele>149</ele>
        <time>2008-01-22T00:00:00Z</time>
      </trkpt>
      <trkpt lat="48.22513" lon="3.46685">
        <ele>133</ele>
        <time>2008-01-22T00:00:00Z</time>
      </trkpt>
      <trkpt lat="48.2256" lon="3.46664">
        <ele>131</ele>
        <time>2008-01-22T00:00:00Z</time>
      </trkpt>
      <trkpt lat="48.22635" lon="3.46603">
        <ele>134</ele>
        <time>2008-01-22T00:00:00Z</time>
      </trkpt>
      <trkpt lat="48.22679" lon="3.46556">
        <ele>137</ele>
        <time>2008-01-22T00:00:00Z</time>
      </trkpt>
      <trkpt lat="48.22734" lon="3.46486">
        <ele>137</ele>
        <time>2008-01-22T00:00:00Z</time>
      </trkpt>
      <trkpt lat="48.2277" lon="3.46434">
        <ele>139</ele>
        <time>2008-01-22T00:00:00Z</time>
      </trkpt>
      <trkpt lat="48.22784" lon="3.464">
        <ele>139</ele>
        <time>2008-01-22T00:00:00Z</time>
      </trkpt>
      <trkpt lat="48.22799" lon="3.46329">
        <ele>140</ele>
        <time>2008-01-22T00:00:00Z</time>
      </trkpt>
      <trkpt lat="48.22839" lon="3.46197">
        <ele>144</ele>
        <time>2008-01-22T00:00:00Z</time>
      </trkpt>
      <trkpt lat="48.22896" lon="3.46">
        <ele>145</ele>
        <time>2008-01-22T00:00:00Z</time>
      </trkpt>
      <trkpt lat="48.22919" lon="3.45912">
        <ele>145</ele>
        <time>2008-01-22T00:00:00Z</time>
      </trkpt>
      <trkpt lat="48.22923" lon="3.45875">
        <ele>147</ele>
        <time>2008-01-22T00:00:00Z</time>
      </trkpt>
      <trkpt lat="48.22922" lon="3.45845">
        <ele>148</ele>
        <time>2008-01-22T00:00:00Z</time>
      </trkpt>
      <trkpt lat="48.22914" lon="3.45812">
        <ele>151</ele>
        <time>2008-01-22T00:00:00Z</time>
      </trkpt>
      <trkpt lat="48.229" lon="3.45776">
        <ele>152</ele>
        <time>2008-01-22T00:00:00Z</time>
      </trkpt>
      <trkpt lat="48.22809" lon="3.45576">
        <ele>162</ele>
        <time>2008-01-22T00:00:00Z</time>
      </trkpt>
      <trkpt lat="48.22769" lon="3.45517">
        <ele>164</ele>
        <time>2008-01-22T00:00:00Z</time>
      </trkpt>
      <trkpt lat="48.22741" lon="3.45488">
        <ele>165</ele>
        <time>2008-01-22T00:00:00Z</time>
      </trkpt>
      <trkpt lat="48.22719" lon="3.45473">
        <ele>166</ele>
        <time>2008-01-22T00:00:00Z</time>
      </trkpt>
      <trkpt lat="48.22593" lon="3.454">
        <ele>170</ele>
        <time>2008-01-22T00:00:00Z</time>
      </trkpt>
      <trkpt lat="48.22572" lon="3.45379">
        <ele>172</ele>
        <time>2008-01-22T00:00:00Z</time>
      </trkpt>
      <trkpt lat="48.22558" lon="3.45352">
        <ele>173</ele>
        <time>2008-01-22T00:00:00Z</time>
      </trkpt>
      <trkpt lat="48.22342" lon="3.45107">
        <ele>177</ele>
        <time>2008-01-22T00:00:00Z</time>
      </trkpt>
      <trkpt lat="48.22245" lon="3.44997">
        <ele>159</ele>
        <time>2008-01-22T00:00:00Z</time>
      </trkpt>
      <trkpt lat="48.22316" lon="3.44869">
        <ele>160</ele>
        <time>2008-01-22T00:00:00Z</time>
      </trkpt>
      <trkpt lat="48.22443" lon="3.44642">
        <ele>168</ele>
        <time>2008-01-22T00:00:00Z</time>
      </trkpt>
      <trkpt lat="48.22268" lon="3.44399">
        <ele>179</ele>
        <time>2008-01-22T00:00:00Z</time>
      </trkpt>
      <trkpt lat="48.2237" lon="3.44203">
        <ele>196</ele>
        <time>2008-01-22T00:00:00Z</time>
      </trkpt>
      <trkpt lat="48.22455" lon="3.44063">
        <ele>212</ele>
        <time>2008-01-22T00:00:00Z</time>
      </trkpt>
      <trkpt lat="48.22548" lon="3.43987">
        <ele>223</ele>
        <time>2008-01-22T00:00:00Z</time>
      </trkpt>
      <trkpt lat="48.22561" lon="3.43982">
        <ele>223</ele>
        <time>2008-01-22T00:00:00Z</time>
      </trkpt>
      <trkpt lat="48.22595" lon="3.44018">
        <ele>224</ele>
        <time>2008-01-22T00:00:00Z</time>
      </trkpt>
      <trkpt lat="48.22626" lon="3.44055">
        <ele>224</ele>
        <time>2008-01-22T00:00:00Z</time>
      </trkpt>
      <trkpt lat="48.22646" lon="3.44066">
        <ele>225</ele>
        <time>2008-01-22T00:00:00Z</time>
      </trkpt>
      <trkpt lat="48.22672" lon="3.4408">
        <ele>228</ele>
        <time>2008-01-22T00:00:00Z</time>
      </trkpt>
      <trkpt lat="48.22705" lon="3.44085">
        <ele>228</ele>
        <time>2008-01-22T00:00:00Z</time>
      </trkpt>
      <trkpt lat="48.22722" lon="3.44097">
        <ele>229</ele>
        <time>2008-01-22T00:00:00Z</time>
      </trkpt>
      <trkpt lat="48.22753" lon="3.44182">
        <ele>231</ele>
        <time>2008-01-22T00:00:00Z</time>
      </trkpt>
      <trkpt lat="48.22763" lon="3.4419">
        <ele>230</ele>
        <time>2008-01-22T00:00:00Z</time>
      </trkpt>
      <trkpt lat="48.22827" lon="3.44116">
        <ele>232</ele>
        <time>2008-01-22T00:00:00Z</time>
      </trkpt>
      <trkpt lat="48.22879" lon="3.44179">
        <ele>233</ele>
        <time>2008-01-22T00:00:00Z</time>
      </trkpt>
      <trkpt lat="48.22954" lon="3.44255">
        <ele>232</ele>
        <time>2008-01-22T00:00:00Z</time>
      </trkpt>
      <trkpt lat="48.23017" lon="3.44313">
        <ele>232</ele>
        <time>2008-01-22T00:00:00Z</time>
      </trkpt>
    </trkseg>
  </trk>
</gpx>